• In Hungary
  • List of Countries
  • For 7 days
  • Water Temperature
  • Satellite Maps
  • Weather Map
  • News
  • Weather Widgets
  • user-avatar
    Login

    Hourly Weather Las Vegas

    Today, 18 February, Sunday

    Time Temperature Precipitation Wind Pressure Humidity
    00:00 +13°C° 0 mm 2 mps 707 mmHg 27%
    01:00 +13°C° 0 mm 2 mps 707 mmHg 28%
    02:00 +13°C° 0 mm 2 mps 706 mmHg 30%
    03:00 +12°C° 0 mm 2 mps 706 mmHg 33%
    04:00 +11°C° 0 mm 3 mps 705 mmHg 36%
    05:00 +11°C° 0 mm 3 mps 705 mmHg 37%
    06:00 +11°C° 0 mm 3 mps 705 mmHg 39%
    07:00 +10°C° 0 mm 3 mps 705 mmHg 41%
    08:00 +13°C° 0 mm 4 mps 705 mmHg 36%
    09:00 +15°C° 0 mm 5 mps 705 mmHg 30%
    10:00 +17°C° 0 mm 6 mps 705 mmHg 25%
    11:00 +18°C° 0 mm 7 mps 704 mmHg 23%
    12:00 +20°C° 0 mm 8 mps 704 mmHg 22%
    13:00 +21°C° 0 mm 8 mps 703 mmHg 21%
    14:00 +21°C° 0 mm 9 mps 702 mmHg 21%
    15:00 +21°C° 0 mm 10 mps 701 mmHg 22%
    16:00 +21°C° 0 mm 11 mps 700 mmHg 22%
    17:00 +19°C° 0 mm 11 mps 699 mmHg 25%
    18:00 +17°C° 0 mm 11 mps 699 mmHg 29%
    19:00 +16°C° 0 mm 11 mps 698 mmHg 32%
    20:00 +14°C° 0 mm 12 mps 698 mmHg 36%
    21:00 +13°C° 0 mm 12 mps 698 mmHg 41%
    22:00 +12°C° 0 mm 13 mps 698 mmHg 45%
    23:00 +10°C° 0 mm 12 mps 698 mmHg 48%

    Tomorrow, 19 February, Monday

    Time Temperature Precipitation Wind Pressure Humidity
    00:00 +9°C° 0 mm 12 mps 698 mmHg 51%
    01:00 +9°C° 0 mm 11 mps 698 mmHg 54%
    02:00 +8°C° 0 mm 11 mps 698 mmHg 50%
    03:00 +7°C° 0 mm 10 mps 699 mmHg 47%
    04:00 +6°C° 0 mm 9 mps 699 mmHg 43%
    05:00 +5°C° 0 mm 8 mps 699 mmHg 41%
    06:00 +5°C° 0 mm 7 mps 700 mmHg 39%
    07:00 +5°C° 0 mm 5 mps 700 mmHg 37%
    08:00 +6°C° 0 mm 5 mps 700 mmHg 33%
    09:00 +6°C° 0 mm 5 mps 701 mmHg 30%
    10:00 +6°C° 0 mm 5 mps 701 mmHg 27%
    11:00 +7°C° 0 mm 5 mps 701 mmHg 24%
    12:00 +7°C° 0 mm 5 mps 701 mmHg 21%
    13:00 +8°C° 0 mm 6 mps 701 mmHg 19%
    14:00 +8°C° 0 mm 6 mps 701 mmHg 18%
    15:00 +8°C° 0 mm 7 mps 701 mmHg 17%
    16:00 +7°C° 0 mm 8 mps 701 mmHg 16%
    17:00 +6°C° 0 mm 8 mps 702 mmHg 17%
    18:00 +5°C° 0 mm 7 mps 702 mmHg 18%
    19:00 +5°C° 0 mm 7 mps 703 mmHg 19%
    20:00 +4°C° 0 mm 7 mps 704 mmHg 20%
    21:00 +3°C° 0 mm 6 mps 705 mmHg 21%
    22:00 +3°C° 0 mm 5 mps 705 mmHg 21%
    23:00 +2°C° 0 mm 5 mps 706 mmHg 22%

    Day after tomorrow, 20 February, Tuesday

    Time Temperature Precipitation Wind Pressure Humidity
    00:00 +3°C° 0 mm 4 mps 706 mmHg 24%
    01:00 +1°C° 0 mm 4 mps 707 mmHg 25%
    02:00 +2°C° 0 mm 3 mps 707 mmHg 26%
    03:00 +1°C° 0 mm 3 mps 707 mmHg 27%
    04:00 +2°C° 0 mm 2 mps 708 mmHg 28%
    05:00 +2°C° 0 mm 2 mps 708 mmHg 28%
    06:00 +2°C° 0 mm 2 mps 709 mmHg 29%
    07:00 +2°C° 0 mm 2 mps 710 mmHg 29%
    08:00 +3°C° 0 mm 2 mps 710 mmHg 25%
    09:00 +4°C° 0 mm 2 mps 711 mmHg 21%
    10:00 +5°C° 0 mm 2 mps 711 mmHg 17%
    11:00 +5°C° 0 mm 2 mps 711 mmHg 16%
    12:00 +6°C° 0 mm 2 mps 711 mmHg 14%
    13:00 +6°C° 0 mm 2 mps 711 mmHg 13%
    14:00 +6°C° 0 mm 2 mps 711 mmHg 12%
    15:00 +7°C° 0 mm 2 mps 711 mmHg 12%
    16:00 +7°C° 0 mm 2 mps 711 mmHg 11%
    17:00 +6°C° 0 mm 2 mps 711 mmHg 13%
    18:00 +7°C° 0 mm 1 mps 712 mmHg 14%
    19:00 +6°C° 0 mm 1 mps 712 mmHg 15%
    20:00 +6°C° 0 mm 1 mps 712 mmHg 16%
    21:00 +5°C° 0 mm 1 mps 713 mmHg 17%
    22:00 +3°C° 0 mm 0 mps 713 mmHg 18%
    23:00 +4°C° 0 mm 1 mps 713 mmHg 19%

    21 February, Wednesday

    Time Temperature Precipitation Wind Pressure Humidity
    00:00 +4°C° 0 mm 1 mps 713 mmHg 19%
    01:00 +3°C° 0 mm 1 mps 713 mmHg 19%
    02:00 +3°C° 0 mm 1 mps 712 mmHg 19%
    03:00 +3°C° 0 mm 1 mps 712 mmHg 19%
    04:00 +3°C° 0 mm 1 mps 712 mmHg 19%
    05:00 +3°C° 0 mm 1 mps 713 mmHg 20%
    06:00 +3°C° 0 mm 1 mps 713 mmHg 21%
    07:00 +3°C° 0 mm 1 mps 713 mmHg 21%
    08:00 +4°C° 0 mm 1 mps 714 mmHg 20%
    09:00 +5°C° 0 mm 1 mps 714 mmHg 19%
    10:00 +5°C° 0 mm 2 mps 714 mmHg 18%
    11:00 +7°C° 0 mm 1 mps 713 mmHg 17%
    12:00 +8°C° 0 mm 1 mps 713 mmHg 16%
    13:00 +8°C° 0 mm 1 mps 712 mmHg 15%
    14:00 +9°C° 0 mm 1 mps 712 mmHg 14%
    15:00 +9°C° 0 mm 1 mps 712 mmHg 14%
    16:00 +9°C° 0 mm 1 mps 712 mmHg 13%
    17:00 +9°C° 0 mm 1 mps 712 mmHg 15%
    18:00 +8°C° 0 mm 1 mps 712 mmHg 16%
    19:00 +8°C° 0 mm 1 mps 712 mmHg 18%
    20:00 +7°C° 0 mm 1 mps 712 mmHg 19%
    21:00 +7°C° 0 mm 1 mps 712 mmHg 20%
    22:00 +5°C° 0 mm 0 mps 712 mmHg 21%
    23:00 +5°C° 0 mm 0 mps 712 mmHg 21%

    22 February, Thursday

    Time Temperature Precipitation Wind Pressure Humidity
    00:00 +4°C° 0 mm 0 mps 712 mmHg 22%
    01:00 +4°C° 0 mm 0 mps 711 mmHg 22%
    02:00 +3°C° 0 mm 0 mps 711 mmHg 22%
    03:00 +3°C° 0 mm 0 mps 711 mmHg 23%
    04:00 +4°C° 0 mm 1 mps 710 mmHg 23%
    05:00 +4°C° 0 mm 1 mps 711 mmHg 23%
    06:00 +4°C° 0 mm 1 mps 711 mmHg 23%
    07:00 +4°C° 0 mm 1 mps 711 mmHg 23%
    08:00 +6°C° 0 mm 1 mps 711 mmHg 22%
    09:00 +7°C° 0 mm 1 mps 711 mmHg 21%
    10:00 +9°C° 0 mm 1 mps 712 mmHg 21%
    11:00 +9°C° 0 mm 2 mps 711 mmHg 21%
    12:00 +10°C° 0 mm 3 mps 710 mmHg 21%
    13:00 +11°C° 0 mm 4 mps 710 mmHg 21%
    14:00 +11°C° 0 mm 4 mps 709 mmHg 21%
    15:00 +10°C° 0 mm 5 mps 708 mmHg 21%
    16:00 +12°C° 0 mm 5 mps 708 mmHg 21%
    17:00 +10°C° 0 mm 5 mps 708 mmHg 23%
    18:00 +9°C° 0 mm 5 mps 708 mmHg 25%
    19:00 +9°C° 0 mm 5 mps 707 mmHg 27%
    20:00 +8°C° 0 mm 5 mps 707 mmHg 30%
    21:00 +8°C° 0 mm 6 mps 707 mmHg 33%
    22:00 +7°C° 0 mm 6 mps 707 mmHg 36%
    23:00 +7°C° 0 mm 6 mps 707 mmHg 41%

    23 February, Friday

    Time Temperature Precipitation Wind Pressure Humidity
    00:00 +7°C° 0 mm 5 mps 707 mmHg 47%
    01:00 +6°C° 0 mm 5 mps 707 mmHg 52%
    02:00 +6°C° 0.3 mm 5 mps 707 mmHg 56%
    03:00 +5°C° 0.3 mm 5 mps 707 mmHg 59%
    04:00 +5°C° 0.3 mm 5 mps 707 mmHg 62%
    05:00 +5°C° 0.1 mm 4 mps 707 mmHg 62%
    06:00 +4°C° 0.1 mm 4 mps 708 mmHg 62%
    07:00 +4°C° 0.1 mm 3 mps 708 mmHg 62%
    08:00 +5°C° 0 mm 3 mps 709 mmHg 55%
    09:00 +6°C° 0 mm 4 mps 710 mmHg 48%
    10:00 +7°C° 0 mm 4 mps 710 mmHg 41%
    11:00 +7°C° 0 mm 4 mps 710 mmHg 37%
    12:00 +8°C° 0 mm 5 mps 710 mmHg 32%
    13:00 +9°C° 0 mm 5 mps 710 mmHg 27%
    14:00 +9°C° 0 mm 5 mps 710 mmHg 26%
    15:00 +9°C° 0 mm 5 mps 710 mmHg 24%
    16:00 +10°C° 0 mm 5 mps 710 mmHg 23%
    17:00 +10°C° 0 mm 4 mps 710 mmHg 24%
    18:00 +9°C° 0 mm 3 mps 711 mmHg 26%
    19:00 +8°C° 0 mm 2 mps 711 mmHg 27%
    20:00 +7°C° 0 mm 2 mps 712 mmHg 27%
    21:00 +7°C° 0 mm 2 mps 712 mmHg 28%
    22:00 +7°C° 0 mm 1 mps 712 mmHg 28%
    23:00 +7°C° 0 mm 1 mps 712 mmHg 29%
    Show more